WMT425 LIMJ-LATI

Flight info

Callsign WMT425
Flight time 1h 16m
Altitude 35000
Route GEN DCT KALMO DCT BEROK DCT DOBOG DCT OGAPU DCT IBENI DCT PETAK
Aircraft A321/M-SDE3FGHIRWY/LB1

Departure

Time 2026-04-28 18:01
Airport Genoa Cristoforo Colombo Airport (LIMJ)

Arrival

Time 2026-04-28 19:17
Airport Tirana International Airport Mother Teresa (LATI)
Time Latitude Longitude Altitude Speed Heading
2026-04-28 17:49 44.41431 8.84943 34 ft 0 kts 60°
2026-04-28 17:53 44.41430 8.84941 37 ft 0 kts 62°
2026-04-28 17:53 44.41421 8.84930 36 ft 2 kts 31°
2026-04-28 17:54 44.41409 8.84918 34 ft 2 kts 43°
2026-04-28 17:54 44.41398 8.84904 33 ft 2 kts 39°
2026-04-28 17:54 44.41386 8.84891 33 ft 2 kts 40°
2026-04-28 17:54 44.41375 8.84877 32 ft 2 kts 40°
2026-04-28 17:55 44.41369 8.84870 32 ft 0 kts 77°
2026-04-28 17:55 44.41369 8.84862 32 ft 1 kts 109°
2026-04-28 17:55 44.41370 8.84857 32 ft 0 kts 105°
2026-04-28 17:56 44.41370 8.84858 32 ft 0 kts 105°
2026-04-28 17:57 44.41363 8.84895 32 ft 7 kts 103°
2026-04-28 17:57 44.41347 8.84998 32 ft 11 kts 103°
2026-04-28 17:57 44.41323 8.85124 29 ft 14 kts 105°
2026-04-28 17:57 44.41283 8.85251 27 ft 14 kts 135°
2026-04-28 17:58 44.41187 8.85263 26 ft 14 kts 194°
2026-04-28 17:58 44.41087 8.85224 26 ft 14 kts 208°
2026-04-28 17:58 44.41002 8.85206 25 ft 15 kts 123°
2026-04-28 17:58 44.40967 8.85352 22 ft 17 kts 106°
2026-04-28 17:59 44.40936 8.85515 22 ft 17 kts 105°
2026-04-28 17:59 44.40904 8.85676 22 ft 17 kts 105°
2026-04-28 17:59 44.40872 8.85839 22 ft 17 kts 105°
2026-04-28 17:59 44.40876 8.85970 22 ft 11 kts 71°
2026-04-28 18:00 44.40854 8.86041 22 ft 10 kts 207°
2026-04-28 18:00 44.40855 8.85928 22 ft 19 kts 284°
2026-04-28 18:00 44.40968 8.85356 22 ft 103 kts 285°
2026-04-28 18:00 44.41225 8.84044 28 ft 174 kts 284°
2026-04-28 18:01 44.41540 8.82404 840 ft 176 kts 285°
2026-04-28 18:01 44.41660 8.80729 1677 ft 178 kts 252°
2026-04-28 18:01 44.40965 8.79436 2172 ft 173 kts 204°
2026-04-28 18:01 44.39782 8.79232 2449 ft 179 kts 162°
2026-04-28 18:02 44.38792 8.80293 2722 ft 189 kts 117°
2026-04-28 18:02 44.38650 8.82126 3007 ft 203 kts 79°
2026-04-28 18:02 44.39010 8.84114 3322 ft 219 kts 78°
2026-04-28 18:02 44.39333 8.86296 3582 ft 240 kts 80°
2026-04-28 18:03 44.39662 8.88664 3956 ft 257 kts 80°
2026-04-28 18:03 44.40008 8.91137 4534 ft 265 kts 80°
2026-04-28 18:03 44.40367 8.93671 5252 ft 267 kts 80°
2026-04-28 18:03 44.40730 8.96212 5940 ft 271 kts 80°
2026-04-28 18:04 44.41097 8.98783 6611 ft 274 kts 80°
2026-04-28 18:04 44.41473 9.01415 7281 ft 278 kts 80°
2026-04-28 18:04 44.41853 9.04065 7938 ft 281 kts 80°
2026-04-28 18:04 44.42200 9.06769 8592 ft 284 kts 86°
2026-04-28 18:05 44.42149 9.09524 9214 ft 285 kts 100°
2026-04-28 18:05 44.41874 9.11301 9620 ft 286 kts 106°
2026-04-28 18:05 44.41155 9.14903 10378 ft 293 kts 107°
2026-04-28 18:05 44.40579 9.17692 10671 ft 307 kts 107°
2026-04-28 18:06 44.39980 9.20616 10943 ft 322 kts 107°
2026-04-28 18:06 44.39352 9.23710 11209 ft 337 kts 107°
2026-04-28 18:06 44.38710 9.26894 11571 ft 347 kts 107°
2026-04-28 18:06 44.38052 9.30176 12119 ft 352 kts 107°
2026-04-28 18:07 44.37393 9.33454 12663 ft 355 kts 107°
2026-04-28 18:07 44.36723 9.36795 13174 ft 360 kts 107°
2026-04-28 18:07 44.36040 9.40187 13686 ft 364 kts 107°
2026-04-28 18:07 44.35352 9.43599 14219 ft 367 kts 106°
2026-04-28 18:08 44.34658 9.47034 14723 ft 371 kts 106°
2026-04-28 18:08 44.33961 9.50483 15229 ft 375 kts 106°
2026-04-28 18:08 44.33251 9.53988 15731 ft 378 kts 106°
2026-04-28 18:08 44.32536 9.57510 16213 ft 382 kts 106°
2026-04-28 18:09 44.31805 9.61107 16689 ft 385 kts 106°
2026-04-28 18:09 44.31073 9.64717 17159 ft 389 kts 106°
2026-04-28 18:09 44.30339 9.68331 17607 ft 393 kts 107°
2026-04-28 18:09 44.29597 9.71984 18055 ft 396 kts 107°
2026-04-28 18:10 44.28835 9.75724 18490 ft 400 kts 107°
2026-04-28 18:10 44.28081 9.79414 18934 ft 403 kts 107°
2026-04-28 18:10 44.27314 9.83169 19400 ft 405 kts 107°
2026-04-28 18:10 44.26540 9.86944 19847 ft 407 kts 107°
2026-04-28 18:11 44.25761 9.90736 20267 ft 410 kts 107°
2026-04-28 18:11 44.24965 9.94607 20677 ft 413 kts 107°
2026-04-28 18:11 44.24173 9.98456 21083 ft 415 kts 107°
2026-04-28 18:11 44.23398 10.02213 21484 ft 418 kts 107°
2026-04-28 18:12 44.22599 10.06082 21870 ft 420 kts 107°
2026-04-28 18:12 44.21782 10.10027 22261 ft 423 kts 107°
2026-04-28 18:12 44.20969 10.13947 22644 ft 425 kts 107°
2026-04-28 18:12 44.20143 10.17928 23031 ft 427 kts 107°
2026-04-28 18:13 44.19324 10.21855 23414 ft 429 kts 107°
2026-04-28 18:13 44.18489 10.25850 23785 ft 431 kts 107°
2026-04-28 18:13 44.17657 10.29834 24140 ft 433 kts 106°
2026-04-28 18:13 44.16955 10.33910 24480 ft 436 kts 101°
2026-04-28 18:14 44.16502 10.38126 24823 ft 438 kts 95°
2026-04-28 18:14 44.16307 10.42337 25161 ft 440 kts 92°
2026-04-28 18:14 44.16198 10.46568 25479 ft 442 kts 91°
2026-04-28 18:14 44.16100 10.50887 25798 ft 444 kts 91°
2026-04-28 18:15 44.16000 10.55179 26115 ft 446 kts 91°
2026-04-28 18:15 44.15892 10.59489 26419 ft 448 kts 91°
2026-04-28 18:15 44.15778 10.63849 26716 ft 450 kts 91°
2026-04-28 18:15 44.15661 10.68164 26999 ft 452 kts 92°
2026-04-28 18:16 44.15539 10.72535 27284 ft 454 kts 92°
2026-04-28 18:16 44.15414 10.76948 27569 ft 456 kts 92°
2026-04-28 18:16 44.15287 10.81324 27832 ft 458 kts 92°
2026-04-28 18:16 44.15157 10.85749 28102 ft 460 kts 92°
2026-04-28 18:17 44.15025 10.90185 28374 ft 461 kts 92°
2026-04-28 18:17 44.14890 10.94662 28627 ft 463 kts 92°
2026-04-28 18:17 44.14754 10.99112 28868 ft 465 kts 92°
2026-04-28 18:17 44.14613 11.03635 29125 ft 467 kts 92°
2026-04-28 18:18 44.14494 11.08133 29362 ft 468 kts 90°
2026-04-28 18:18 44.14528 11.12651 29600 ft 469 kts 87°
2026-04-28 18:18 44.14659 11.17168 29824 ft 471 kts 86°
2026-04-28 18:18 44.14758 11.20210 29991 ft 472 kts 86°
2026-04-28 18:19 44.14957 11.26267 30425 ft 470 kts 86°
2026-04-28 18:19 44.15101 11.30792 30737 ft 469 kts 86°
2026-04-28 18:19 44.15241 11.35288 31025 ft 469 kts 86°
2026-04-28 18:19 44.15377 11.39836 31300 ft 469 kts 86°
2026-04-28 18:20 44.15511 11.44379 31566 ft 469 kts 86°
2026-04-28 18:20 44.15640 11.48890 31830 ft 469 kts 86°
2026-04-28 18:20 44.15746 11.53430 32092 ft 469 kts 88°
2026-04-28 18:20 44.15691 11.57919 32327 ft 470 kts 91°
2026-04-28 18:21 44.15485 11.62482 32573 ft 470 kts 92°
2026-04-28 18:21 44.15250 11.66998 32829 ft 469 kts 94°
2026-04-28 18:21 44.15011 11.71470 33053 ft 469 kts 94°
2026-04-28 18:21 44.14768 11.76003 33271 ft 470 kts 94°
2026-04-28 18:22 44.14526 11.80531 33460 ft 470 kts 93°
2026-04-28 18:22 44.14282 11.85071 33640 ft 471 kts 93°
2026-04-28 18:22 44.14039 11.89606 33805 ft 472 kts 93°
2026-04-28 18:22 44.13793 11.94151 33983 ft 473 kts 93°
2026-04-28 18:23 44.13546 11.98713 34183 ft 473 kts 93°
2026-04-28 18:23 44.13298 12.03254 34392 ft 473 kts 93°
2026-04-28 18:23 44.13051 12.07765 34585 ft 472 kts 93°
2026-04-28 18:23 44.12801 12.12303 34772 ft 472 kts 93°
2026-04-28 18:24 44.12546 12.16884 34922 ft 472 kts 93°
2026-04-28 18:24 44.12380 12.19867 34979 ft 474 kts 93°
2026-04-28 18:24 44.11772 12.30638 35001 ft 482 kts 93°
2026-04-28 18:25 44.11238 12.39915 35005 ft 489 kts 93°
2026-04-28 18:26 44.10410 12.54037 35005 ft 490 kts 92°
2026-04-28 18:26 44.09848 12.63473 35000 ft 490 kts 92°
2026-04-28 18:27 44.09282 12.72874 34997 ft 491 kts 94°
2026-04-28 18:27 44.08701 12.82336 34997 ft 491 kts 93°
2026-04-28 18:28 44.08116 12.91732 34994 ft 491 kts 93°
2026-04-28 18:28 44.07524 13.01147 34990 ft 491 kts 93°
2026-04-28 18:29 44.06923 13.10596 35000 ft 491 kts 93°
2026-04-28 18:29 44.06315 13.20033 35005 ft 491 kts 93°
2026-04-28 18:30 44.05702 13.29412 35005 ft 491 kts 93°
2026-04-28 18:30 44.05080 13.38813 35004 ft 491 kts 93°
2026-04-28 18:31 44.04444 13.48281 35010 ft 491 kts 93°
2026-04-28 18:31 44.03808 13.57681 35003 ft 495 kts 93°
2026-04-28 18:32 44.03155 13.67207 35005 ft 497 kts 94°
2026-04-28 18:32 44.02489 13.76764 35012 ft 498 kts 94°
2026-04-28 18:33 44.01481 13.86202 35014 ft 500 kts 101°
2026-04-28 18:33 43.99572 13.95498 35009 ft 501 kts 109°
2026-04-28 18:34 43.96811 14.04281 35014 ft 500 kts 117°
2026-04-28 18:34 43.93573 14.12766 35012 ft 499 kts 118°
2026-04-28 18:35 43.90302 14.21280 35017 ft 499 kts 118°
2026-04-28 18:35 43.87046 14.29779 35015 ft 499 kts 118°
2026-04-28 18:36 43.83815 14.38211 35018 ft 499 kts 117°
2026-04-28 18:36 43.80564 14.46679 35022 ft 499 kts 117°
2026-04-28 18:37 43.77301 14.55152 35020 ft 500 kts 117°
2026-04-28 18:37 43.74050 14.63564 35024 ft 499 kts 117°
2026-04-28 18:38 43.70761 14.72052 35022 ft 499 kts 118°
2026-04-28 18:38 43.67501 14.80439 35025 ft 500 kts 118°
2026-04-28 18:39 43.64225 14.88838 35025 ft 499 kts 118°
2026-04-28 18:39 43.60936 14.97250 35026 ft 499 kts 118°
2026-04-28 18:40 43.57639 15.05653 35027 ft 498 kts 118°
2026-04-28 18:40 43.54354 15.14008 35027 ft 499 kts 118°
2026-04-28 18:41 43.51061 15.22360 35026 ft 499 kts 118°
2026-04-28 18:41 43.47747 15.30738 35026 ft 499 kts 118°
2026-04-28 18:42 43.44429 15.39099 35023 ft 499 kts 118°
2026-04-28 18:42 43.41110 15.47439 35024 ft 499 kts 118°
2026-04-28 18:43 43.37778 15.55782 35019 ft 499 kts 118°
2026-04-28 18:43 43.34439 15.64120 35024 ft 499 kts 118°
2026-04-28 18:44 43.31110 15.72413 35023 ft 500 kts 119°
2026-04-28 18:44 43.26062 15.84942 35020 ft 500 kts 119°
2026-04-28 18:45 43.22725 15.93193 35018 ft 499 kts 119°
2026-04-28 18:45 43.19351 16.01507 35021 ft 499 kts 119°
2026-04-28 18:46 43.15969 16.09820 35030 ft 500 kts 119°
2026-04-28 18:46 43.12605 16.18065 35029 ft 500 kts 119°
2026-04-28 18:47 43.09213 16.26355 35032 ft 500 kts 119°
2026-04-28 18:47 43.05824 16.34617 35031 ft 500 kts 119°
2026-04-28 18:48 43.02444 16.42833 35037 ft 499 kts 119°
2026-04-28 18:48 42.99037 16.51088 35031 ft 500 kts 119°
2026-04-28 18:49 42.96771 16.56564 35030 ft 500 kts 119°
2026-04-28 18:49 42.92207 16.67567 35027 ft 500 kts 120°
2026-04-28 18:50 42.88781 16.75797 35034 ft 500 kts 120°
2026-04-28 18:50 42.85344 16.84032 35031 ft 500 kts 120°
2026-04-28 18:51 42.81923 16.92207 35029 ft 499 kts 120°
2026-04-28 18:51 42.78484 17.00400 35031 ft 500 kts 120°
2026-04-28 18:52 42.75033 17.08597 35034 ft 500 kts 120°
2026-04-28 18:52 42.71568 17.16807 35032 ft 500 kts 120°
2026-04-28 18:53 42.68121 17.24949 34965 ft 498 kts 119°
2026-04-28 18:53 42.66408 17.28987 34721 ft 487 kts 119°
2026-04-28 18:53 42.64735 17.32927 34465 ft 479 kts 119°
2026-04-28 18:54 42.63073 17.36836 34190 ft 475 kts 119°
2026-04-28 18:54 42.61431 17.40691 33920 ft 472 kts 119°
2026-04-28 18:54 42.59811 17.44491 33656 ft 471 kts 119°
2026-04-28 18:54 42.58165 17.48349 33383 ft 471 kts 119°
2026-04-28 18:55 42.56537 17.52154 33115 ft 471 kts 119°
2026-04-28 18:55 42.55427 17.54748 32935 ft 471 kts 119°
2026-04-28 18:55 42.53244 17.59843 32576 ft 472 kts 119°
2026-04-28 18:55 42.51599 17.63677 32308 ft 472 kts 119°
2026-04-28 18:56 42.49945 17.67525 32027 ft 473 kts 120°
2026-04-28 18:56 42.48299 17.71349 31595 ft 473 kts 120°
2026-04-28 18:56 42.46656 17.75164 31024 ft 473 kts 120°
2026-04-28 18:56 42.45008 17.78985 30446 ft 472 kts 120°
2026-04-28 18:57 42.43351 17.82820 30031 ft 473 kts 120°
2026-04-28 18:57 42.41684 17.86675 29583 ft 474 kts 120°
2026-04-28 18:57 42.40042 17.90466 29124 ft 470 kts 120°
2026-04-28 18:57 42.38397 17.94256 28655 ft 467 kts 120°
2026-04-28 18:58 42.36769 17.98006 28193 ft 463 kts 120°
2026-04-28 18:58 42.35143 18.01745 27720 ft 459 kts 120°
2026-04-28 18:58 42.33527 18.05459 27243 ft 456 kts 120°
2026-04-28 18:58 42.31944 18.09089 26786 ft 452 kts 120°
2026-04-28 18:59 42.30355 18.12731 26321 ft 448 kts 120°
2026-04-28 18:59 42.28767 18.16366 25863 ft 444 kts 120°
2026-04-28 18:59 42.27226 18.19888 25412 ft 441 kts 120°
2026-04-28 18:59 42.25673 18.23435 24958 ft 437 kts 120°
2026-04-28 19:00 42.24125 18.26967 24488 ft 434 kts 120°
2026-04-28 19:00 42.22606 18.30428 24036 ft 430 kts 120°
2026-04-28 19:00 42.21086 18.33883 23579 ft 427 kts 120°
2026-04-28 19:00 42.19587 18.37289 23131 ft 424 kts 120°
2026-04-28 19:01 42.18083 18.40702 22679 ft 420 kts 120°
2026-04-28 19:01 42.16611 18.44040 22229 ft 417 kts 120°
2026-04-28 19:01 42.15130 18.47395 21788 ft 414 kts 120°
2026-04-28 19:01 42.13661 18.50718 21333 ft 411 kts 120°
2026-04-28 19:02 42.12217 18.53984 20889 ft 409 kts 120°
2026-04-28 19:02 42.10752 18.57289 20430 ft 406 kts 120°
2026-04-28 19:02 42.09326 18.60507 19992 ft 404 kts 120°
2026-04-28 19:02 42.07891 18.63739 19550 ft 402 kts 120°
2026-04-28 19:03 42.06464 18.66950 19102 ft 400 kts 121°
2026-04-28 19:03 42.05054 18.70120 18666 ft 397 kts 121°
2026-04-28 19:03 42.03640 18.73293 18210 ft 395 kts 121°
2026-04-28 19:03 42.02233 18.76448 17777 ft 393 kts 121°
2026-04-28 19:04 42.00836 18.79578 17336 ft 391 kts 121°
2026-04-28 19:04 41.99430 18.82727 16887 ft 390 kts 121°
2026-04-28 19:04 41.98051 18.85809 16441 ft 388 kts 121°
2026-04-28 19:04 41.96668 18.88899 16007 ft 386 kts 121°
2026-04-28 19:05 41.95279 18.91997 15565 ft 383 kts 121°
2026-04-28 19:05 41.93921 18.95024 15126 ft 381 kts 121°
2026-04-28 19:05 41.92567 18.98041 14687 ft 378 kts 121°
2026-04-28 19:05 41.91213 19.01054 14244 ft 376 kts 121°
2026-04-28 19:06 41.89871 19.04038 13798 ft 374 kts 121°
2026-04-28 19:06 41.88974 19.06031 13500 ft 372 kts 121°
2026-04-28 19:06 41.87198 19.09970 13070 ft 363 kts 121°
2026-04-28 19:06 41.85918 19.12807 13055 ft 358 kts 121°
2026-04-28 19:07 41.84629 19.15661 13050 ft 359 kts 121°
2026-04-28 19:07 41.83321 19.18554 13056 ft 359 kts 121°
2026-04-28 19:07 41.82050 19.21362 12784 ft 357 kts 121°
2026-04-28 19:07 41.80758 19.24213 12048 ft 364 kts 121°
2026-04-28 19:08 41.79433 19.27133 11658 ft 359 kts 121°
2026-04-28 19:08 41.78171 19.29912 11478 ft 349 kts 122°
2026-04-28 19:08 41.76792 19.32527 11292 ft 338 kts 128°
2026-04-28 19:08 41.75309 19.34943 11119 ft 329 kts 130°
2026-04-28 19:09 41.73870 19.37228 10933 ft 318 kts 130°
2026-04-28 19:09 41.72472 19.39441 10706 ft 306 kts 130°
2026-04-28 19:09 41.71130 19.41571 10432 ft 296 kts 130°
2026-04-28 19:09 41.69814 19.43664 10035 ft 294 kts 130°
2026-04-28 19:10 41.68496 19.45760 9619 ft 291 kts 130°
2026-04-28 19:10 41.67208 19.47808 9081 ft 288 kts 130°
2026-04-28 19:10 41.65943 19.49820 8467 ft 287 kts 130°
2026-04-28 19:10 41.64656 19.51866 7859 ft 285 kts 129°
2026-04-28 19:11 41.63651 19.54076 7206 ft 284 kts 104°
2026-04-28 19:11 41.63541 19.56648 6607 ft 279 kts 82°
2026-04-28 19:11 41.63859 19.59217 6023 ft 277 kts 78°
2026-04-28 19:11 41.64185 19.61726 5428 ft 275 kts 80°
2026-04-28 19:12 41.64428 19.64241 4840 ft 273 kts 89°
2026-04-28 19:12 41.64031 19.66654 4297 ft 272 kts 118°
2026-04-28 19:12 41.62818 19.68522 3932 ft 263 kts 147°
2026-04-28 19:12 41.61172 19.69438 3619 ft 253 kts 168°
2026-04-28 19:13 41.59486 19.69759 3313 ft 239 kts 175°
2026-04-28 19:13 41.57852 19.69919 3010 ft 227 kts 176°
2026-04-28 19:13 41.56342 19.70074 2771 ft 212 kts 175°
2026-04-28 19:13 41.54926 19.70249 2545 ft 198 kts 174°
2026-04-28 19:14 41.53599 19.70428 2296 ft 185 kts 174°
2026-04-28 19:14 41.52345 19.70600 2014 ft 176 kts 174°
2026-04-28 19:14 41.51174 19.70759 1754 ft 164 kts 174°
2026-04-28 19:14 41.50077 19.70906 1516 ft 153 kts 173°
2026-04-28 19:15 41.49031 19.71046 1332 ft 151 kts 173°
2026-04-28 19:15 41.47985 19.71186 1153 ft 151 kts 173°
2026-04-28 19:15 41.46947 19.71326 966 ft 150 kts 173°
2026-04-28 19:15 41.46254 19.71418 836 ft 150 kts 173°
2026-04-28 19:16 41.44870 19.71595 568 ft 149 kts 173°
2026-04-28 19:16 41.43836 19.71742 367 ft 149 kts 173°
2026-04-28 19:16 41.42800 19.71877 164 ft 148 kts 173°
2026-04-28 19:16 41.41821 19.72010 120 ft 129 kts 174°
2026-04-28 19:17 41.41093 19.72104 128 ft 79 kts 173°
2026-04-28 19:17 41.40751 19.72150 130 ft 24 kts 174°
2026-04-28 19:17 41.40675 19.72061 129 ft 16 kts 257°
2026-04-28 19:17 41.40648 19.71909 128 ft 17 kts 257°
2026-04-28 19:18 41.40674 19.71775 126 ft 17 kts 349°
2026-04-28 19:18 41.40791 19.71751 126 ft 17 kts 352°
2026-04-28 19:18 41.40931 19.71724 126 ft 27 kts 352°
2026-04-28 19:18 41.41118 19.71692 126 ft 25 kts 354°
2026-04-28 19:19 41.41291 19.71670 124 ft 24 kts 353°
2026-04-28 19:19 41.41459 19.71648 123 ft 22 kts 355°
2026-04-28 19:19 41.41613 19.71628 121 ft 22 kts 355°
2026-04-28 19:19 41.41763 19.71606 120 ft 20 kts 354°
2026-04-28 19:20 41.41884 19.71594 119 ft 15 kts 357°
2026-04-28 19:20 41.41951 19.71568 117 ft 5 kts 285°
2026-04-28 19:20 41.41950 19.71521 117 ft 3 kts 265°
2026-04-28 19:20 41.41949 19.71520 117 ft 0 kts 265°